Tracking 35331 objects as of 15-Sep-2026
HD Live streaming from Space Station
objects crossing your sky now

KUIPER-00076

Track KUIPER-00076 now!
10-day predictions
KUIPER-00076 is classified as:


NORAD ID: 64823
Int'l Code: 2025-151H
Launch date: July 16, 2025
Source: United States (US)
Launch site: AIR FORCE EASTERN TEST RANGE (AFETR)
Your satellite tracking list
Your tracking list is empty




NASA's NSSDC Master Catalog

Two Line Element Set (TLE):
1 64823U 25151H   26258.05429147  .00000193  00000-0  54304-4 0  9995
2 64823  51.9001 175.7304 0000854  83.3993 276.7066 14.79926533 63451
Source of the keplerian elements: AFSPC